Tracking 28764 objects as of 12-Apr-2024
HD Live streaming from Space Station
objects crossing your sky now

SL-19 DEB

Track SL-19 DEB now!
10-day predictions


NORAD ID: 23487
Int'l Code: 1994-085K
Perigee: 1,869.0 km
Apogee: 2,162.0 km
Inclination: 64.9 °
Period: 127.4 minutes
Semi major axis: 8386 km
RCS: 0.0667 m2 (small)
Launch date: December 26, 1994
Source: Commonwealth of Independent States (former USSR) (CIS)
Launch site: TYURATAM MISSILE AND SPACE COMPLEX (TTMTR)

Note: This is SATELLITE DEBRIS
Your satellite tracking list
Your tracking list is empty




NASA's NSSDC Master Catalog

Two Line Element Set (TLE):
1 23487U 94085K   24102.00108729 -.00000014  00000-0  77153-3 0  9998
2 23487  64.9356 130.3659 0174713 335.3085 115.2720 11.30399766208841
Source of the keplerian elements: AFSPC